This is the latest recevied weather packets stored in our database for station/object K4IR. If no packets are shown the sender has not sent any weather packets the latest 10 day(s).
| Time | Temp. | Humidity | Pressure | Rain* | Wind** | Luminosity | Snow |
|---|---|---|---|---|---|---|---|
| 1787757537 | 30° C | 68% | 1019.1 hPa | 0 mm | - | 279 W/m² | - |
| 1787756935 | 30° C | 69% | 1018.9 hPa | 0 mm | - | 261 W/m² | - |
| 1787756330 | 29.44° C | 71% | 1019 hPa | 0 mm | - | 225 W/m² | - |
| 1787755731 | 29.44° C | 75% | 1018.9 hPa | 0 mm | - | 115 W/m² | - |
| 1787755131 | 28.89° C | 75% | 1019.1 hPa | 0 mm | - | 240 W/m² | - |
| 1787754530 | 28.33° C | 75% | 1019.1 hPa | 0 mm | - | 241 W/m² | - |
| 1787753924 | 28.89° C | 77% | 1019.1 hPa | 0 mm | - | 196 W/m² | - |
| 1787753322 | 28.89° C | 78% | 1018.9 hPa | 0 mm | - | 198 W/m² | - |
| 1787752721 | 28.33° C | 80% | 1018.9 hPa | 0 mm | - | 172 W/m² | - |
| 1787752118 | 28.33° C | 82% | 1019 hPa | 0 mm | - | 156 W/m² | - |
| 1787751513 | 27.22° C | 86% | 1018.8 hPa | 0 mm | - | 206 W/m² | - |
| 1787750910 | 27.22° C | 86% | 1018.6 hPa | 0 mm | - | 119 W/m² | - |
| 1787750305 | 26.67° C | 87% | 1018.4 hPa | 0 mm | - | 151 W/m² | - |
| 1787749702 | 25.56° C | 91% | 1018.6 hPa | 0 mm | - | 91 W/m² | - |
| 1787749097 | 25° C | 96% | 1018.7 hPa | 0 mm | - | 95 W/m² | - |
| 1787748498 | 23.89° C | 98% | 1018.7 hPa | 0 mm | - | 79 W/m² | - |
| 1787747894 | 23.89° C | 99% | 1018.7 hPa | 0 mm | - | 60 W/m² | - |
| 1787747289 | 23.33° C | 99% | 1018.8 hPa | 0 mm | - | 65 W/m² | - |
| 1787746686 | 23.33° C | 99% | 1018.6 hPa | 0 mm | - | 64 W/m² | - |
| 1787746084 | 22.78° C | 99% | 1018.8 hPa | 0 mm | - | 55 W/m² | - |
| 1787745482 | 22.22° C | 99% | 1018.7 hPa | 0 mm | - | 41 W/m² | - |
| 1787744879 | 21.67° C | 99% | 1018.6 hPa | 0 mm | - | 39 W/m² | - |
| 1787744276 | 21.11° C | 99% | 1018.4 hPa | 0 mm | - | 35 W/m² | - |
| 1787743672 | 21.11° C | 99% | 1018.2 hPa | 0 mm | - | 28 W/m² | - |
| 1787743069 | 20.56° C | 99% | 1018.3 hPa | 0 mm | - | 21 W/m² | - |
* Rain latest hour (hover to see other rain measurements)
** Current wind speed in m/s (hover to see current wind gust speed)